Find Starlink 31972

NORAD ID: 59923 Int'l Des: 2024-106 Owner: SPXS Country: US Constellation: starlink operational
LEOCIRCULAR

实时位置

正在加载3D地球...

关于 Starlink 31972

正在加载描述...

即将过境

Passes for default location (London). Set your location on the main map for personalized predictions.

高度历史

Loading altitude history...

两行轨道根数

1 59923U 24106B 26124.73896536 .00000638 00000-0 32717-4 0 9994
2 59923 43.0024 16.0910 0001147 268.3696 91.7024 15.27559840109147
Epoch: May 4, 2026 • Age: 8 hours

当前状态

高度 485.5 km
速度 7.63 km/s
星下点 36.47°N, 112.42°W
发射日期 Jun 1, 2024
运行时间 1.9 years
类型 internet

技术详情

分类 Payload
质量 730.00 kg
干质量 700.00 kg
总质量 730.00 kg
长度 0.30 m
直径 4.10 m
跨度 29.00 m
形状 Box + pan
制造商 SPXS
平台类型 Starlink V2M
阶段状态 In Orbit
所有者/国家 SPXS/US

Most Searched